Track FLOCK 3P 12 now! 10-day predictions FLOCK 3P 12 is classified as:
1 41972U 17008AA 22137.43039007 .00016532 00000-0 51816-3 0 9991 2 41972 97.2790 204.3715 0005284 343.4902 16.6167 15.33131108292258